Wind_Speed
4 4 4 3 3 3 3 3 3 2 3 3 3 3 5 5 6 5 7 8 8 8 10 11 12 12 12 12 12 13 11 12 10 10 9 8 8 7 7 8 7 6 6
6 5 4 4 3 3 3 3 2 2 2 3 3 3 5 6 7 6 7 8 8 9 10 11 11 12 12 12 12 12 11 11 10 10 9 8 8 7 7 7 7 7 6
6 6 5 4 4 4 3 3 3 2 2 2 2 3 5 7 7 7 8 9 9 10 10 11 12 11 11 12 11 11 11 11 10 10 10 8 8 7 7 7 7 6 6
6 6 6 5 4 4 3 2 3 2 3 3 2 3 5 7 8 8 8 10 10 11 11 11 11 10 11 11 11 12 12 11 11 10 9 8 7 7 7 7 7 7 6
6 6 6 5 4 4 3 3 3 3 3 3 3 3 5 7 8 8 8 9 9 11 11 10 11 10 10 11 12 12 13 12 10 9 9 8 8 7 7 7 7 7 6
6 6 6 5 5 4 3 3 3 3 3 3 4 4 5 6 7 7 8 9 9 9 9 10 10 10 10 10 11 12 12 11 10 9 9 8 7 7 6 7 7 6 6
7 6 6 6 5 5 4 3 3 4 4 4 4 4 5 6 6 8 9 9 10 11 11 10 10 10 11 12 12 11 11 10 9 8 7 8 7 7 7 7 7 6 6
7 7 6 6 6 5 5 4 4 5 5 4 4 5 5 5 6 8 9 9 10 11 11 10 10 10 11 13 12 12 11 11 10 8 8 8 8 7 7 7 6 6 5
7 7 7 6 6 6 6 6 6 6 6 5 5 6 6 6 7 9 9 9 10 9 10 11 11 11 12 12 12 12 11 11 10 10 8 7 8 7 7 6 6 6 5
9 8 7 7 7 6 6 6 6 6 6 6 6 6 7 7 8 8 9 8 9 9 9 9 10 11 12 11 11 11 11 10 10 9 8 7 7 6 6 5 5 5 5
9 9 8 7 7 7 6 6 6 7 6 6 6 7 7 7 9 9 8 9 9 8 9 10 9 9 10 10 10 10 9 8 8 8 7 7 6 5 5 5 5 5 4
10 10 9 8 7 6 6 7 7 7 7 7 7 7 7 8 9 9 9 9 9 9 9 9 8 8 9 8 9 8 7 6 6 6 6 5 5 4 4 4 4 4 3
9 10 10 9 8 7 7 7 7 7 8 8 7 8 9 10 9 9 9 9 9 8 8 8 8 8 8 8 8 7 7 6 5 5 5 4 4 4 4 3 3 3 3
10 10 10 10 9 8 8 8 8 8 8 8 8 8 9 9 9 8 8 8 9 8 7 7 8 7 8 8 8 7 6 5 5 5 4 4 3 4 4 3 3 3 3
11 11 10 9 9 9 9 9 9 9 8 9 9 9 9 9 8 8 7 8 8 8 7 7 7 7 6 6 6 6 5 5 5 4 4 4 4 4 4 3 3 3 3
11 11 11 10 9 9 9 9 8 8 9 9 9 8 8 8 8 8 8 7 7 7 7 7 6 6 6 5 5 5 5 4 5 5 4 4 4 4 4 4 3 3 4
12 11 11 10 9 9 9 9 8 8 8 8 8 8 8 7 7 8 8 7 6 6 6 5 5 6 5 5 4 4 4 4 4 4 4 5 4 5 5 4 4 5 5
14 13 12 10 10 9 9 8 8 8 8 8 7 7 7 7 8 8 7 7 6 5 5 5 5 5 5 4 4 4 3 4 4 4 4 4 4 5 5 5 5 5 6
14 13 12 11 10 9 8 8 7 8 8 7 7 6 6 6 7 7 7 6 5 5 4 4 4 4 4 4 3 3 3 3 4 4 4 4 5 5 6 6 6 6 6
13 14 13 12 10 9 8 8 8 7 7 6 6 6 6 5 5 5 5 5 4 4 4 3 3 3 3 3 3 3 3 3 4 4 4 5 5 5 5 6 6 6 7
13 13 13 12 11 10 9 8 8 7 6 6 6 6 6 5 5 5 4 4 3 3 3 2 2 2 2 2 2 2 3 3 4 4 5 5 6 5 6 6 6 7 7
12 12 12 12 11 10 9 9 7 7 6 6 6 6 5 5 5 5 4 3 3 3 3 2 2 2 1 2 2 3 3 3 3 4 5 5 6 6 6 6 7 7 8
12 12 11 11 10 10 9 8 7 6 6 5 5 5 5 5 4 5 4 4 4 4 3 3 2 2 1 1 2 2 3 3 3 4 4 4 5 6 6 6 7 8 8
10 10 11 11 10 10 9 8 7 7 6 5 5 5 5 5 5 6 6 5 5 4 4 3 2 1 0 1 1 2 3 3 3 3 4 5 5 6 6 6 7 7 8
9 9 9 9 9 9 8 8 7 6 6 5 5 5 5 5 5 5 5 5 5 4 4 3 2 2 1 1 2 3 3 4 4 5 5 5 6 6 7 7 7 7 8
6 7 8 8 8 8 7 7 6 6 5 5 4 4 4 4 4 4 4 4 4 3 3 3 3 3 2 2 3 3 3 4 5 6 6 6 6 6 7 8 8 9 9
Wind_Direction
43 44 52 67 78 81 82 98 118 113 114 114 120 139 147 152 150 151 149 154 153 154 152 154 152 154 154 155 160 161 164 168 164 164 163 161 162 157 154 151 150 146 143
49 58 67 75 81 76 73 86 118 115 120 122 131 148 147 154 152 149 145 147 147 150 149 152 157 157 156 161 162 160 160 164 164 163 159 156 154 156 153 151 149 147 143
59 62 64 72 72 68 71 82 89 112 140 153 164 148 140 152 153 153 148 143 150 151 151 153 157 162 161 160 162 164 162 160 161 159 157 152 152 155 152 150 144 145 142
57 57 59 62 63 63 71 83 92 98 118 131 148 158 131 147 154 153 155 147 150 154 154 159 160 156 161 159 160 162 161 162 163 155 156 156 158 158 156 152 148 143 138
53 51 55 58 56 52 53 73 96 96 111 122 135 140 133 141 150 150 156 155 151 153 156 163 162 158 156 155 154 155 158 157 160 158 157 156 154 154 154 151 150 144 138
57 51 51 54 55 55 53 66 89 99 115 130 132 130 136 142 146 148 156 157 156 157 151 155 158 153 154 151 152 151 153 156 158 158 156 151 151 151 152 151 146 140 137
56 51 50 55 57 60 60 71 90 95 100 120 137 134 137 141 149 152 156 154 156 155 153 147 156 162 156 154 156 157 155 156 154 149 148 152 152 150 149 147 145 141 138
54 50 48 51 56 66 70 71 90 90 86 102 132 135 129 133 140 145 150 153 153 148 146 151 159 162 155 149 153 156 157 156 151 151 149 150 151 151 148 146 146 146 142
52 49 45 49 54 61 68 77 95 93 90 97 116 133 127 128 135 139 145 149 145 145 141 148 149 151 150 150 153 156 156 155 150 149 148 146 147 150 147 142 146 149 150
49 47 50 51 52 60 71 76 89 101 102 97 112 125 131 132 140 138 140 141 142 141 144 145 142 139 142 146 151 154 156 155 148 150 151 145 144 145 145 146 151 155 157
48 47 49 53 56 64 73 82 89 98 103 104 111 121 128 133 136 137 135 137 135 137 140 143 141 144 141 140 143 145 145 145 142 146 149 145 142 140 145 152 151 156 161
50 50 53 60 65 71 84 87 90 97 105 110 111 114 119 124 126 131 128 133 137 139 139 145 149 150 150 142 136 141 148 149 149 151 152 148 148 154 162 157 158 163 172
53 56 58 62 67 77 85 90 90 93 104 112 114 116 120 120 120 126 127 127 134 137 135 136 141 145 150 152 151 148 154 159 158 161 164 166 173 179 179 172 179 188 198
58 59 60 62 67 70 76 86 94 95 103 111 112 118 123 122 122 127 134 130 131 136 139 138 137 142 148 152 153 154 159 166 167 177 182 187 195 202 198 196 206 207 214
59 61 62 64 66 70 72 79 90 94 100 109 113 120 126 130 132 136 134 136 136 138 143 146 139 142 147 149 154 159 168 183 194 197 205 207 207 207 210 215 221 238 242
58 60 60 66 69 72 74 77 88 96 103 110 117 122 127 131 132 134 136 141 143 144 146 145 141 146 146 149 162 175 186 197 204 210 216 218 216 215 218 225 239 255 258
59 62 62 65 70 75 79 82 85 96 103 104 113 123 127 131 135 137 138 141 142 146 151 153 153 157 154 156 165 178 197 209 213 221 223 224 226 227 232 236 244 254 261
58 59 58 60 67 76 81 84 85 89 95 101 108 116 120 132 136 141 144 147 147 143 151 159 164 162 164 172 180 190 206 216 224 234 229 229 231 234 238 241 251 258 265
58 58 56 59 67 75 83 86 89 94 97 97 102 109 111 120 130 138 141 138 137 136 135 145 155 164 170 179 187 202 217 223 226 228 236 238 238 238 240 248 260 266 267
58 58 58 60 67 74 80 84 88 95 99 98 100 106 108 111 125 130 136 131 132 133 130 137 147 153 167 178 193 213 220 222 227 232 242 251 252 251 253 256 264 270 271
54 55 55 61 66 72 77 82 86 90 96 97 98 105 108 107 115 123 131 137 135 129 129 140 145 165 184 194 219 225 221 227 236 244 247 256 258 259 268 271 273 272 278
54 55 54 58 65 72 78 81 82 84 92 101 102 102 105 109 115 112 106 104 111 122 135 143 152 161 182 209 227 224 231 245 249 252 252 260 258 260 266 272 275 277 278
53 55 57 59 62 69 76 80 82 85 89 97 103 107 107 102 98 107 105 100 100 105 113 121 121 129 133 245 250 229 234 247 260 260 254 263 267 269 269 275 281 283 280
44 48 53 57 58 60 65 71 74 79 87 96 102 106 107 104 98 91 95 93 92 92 95 97 92 79 27 324 284 266 251 249 259 267 273 272 273 273 276 278 281 285 285
39 42 47 52 55 56 59 65 69 73 79 92 100 102 103 103 100 91 94 95 93 89 87 78 70 53 23 349 321 295 272 264 269 274 277 278 278 275 274 278 282 285 289
29 32 40 45 46 48 51 57 63 68 75 85 97 103 100 95 92 92 102 97 94 87 84 64 41 27 11 353 342 330 310 296 288 284 280 280 281 282 280 280 281 283 288
Height
5874 5873 5873 5873 5872 5872 5872 5872 5872 5871 5871 5871 5871 5871 5871 5871 5871 5872 5872 5872 5873 5873 5874 5875 5876 5877 5879 5881 5882 5884 5886 5887 5888 5889 5890 5891 5892 5892 5893 5893 5894 5894 5895
5874 5874 5873 5873 5873 5872 5872 5872 5872 5872 5872 5871 5871 5871 5871 5871 5871 5872 5873 5872 5873 5873 5874 5876 5877 5878 5880 5882 5883 5885 5886 5887 5888 5889 5890 5891 5892 5893 5894 5894 5894 5895 5895
5874 5874 5874 5873 5873 5873 5873 5872 5872 5872 5872 5872 5872 5872 5871 5871 5871 5872 5873 5873 5873 5873 5875 5876 5878 5879 5880 5882 5884 5885 5886 5887 5889 5890 5891 5892 5893 5893 5894 5895 5895 5895 5896
5875 5875 5874 5874 5873 5873 5873 5872 5872 5872 5872 5872 5872 5872 5871 5871 5872 5872 5873 5873 5873 5874 5875 5876 5878 5879 5881 5882 5884 5885 5886 5888 5889 5890 5892 5893 5893 5894 5895 5895 5896 5896 5897
5876 5875 5875 5874 5874 5873 5873 5873 5872 5872 5872 5872 5872 5872 5871 5872 5872 5872 5873 5873 5874 5874 5875 5877 5878 5879 5881 5883 5885 5886 5887 5889 5890 5891 5892 5893 5894 5894 5895 5896 5897 5897 5898
5876 5876 5875 5875 5874 5874 5873 5873 5873 5873 5872 5872 5872 5872 5872 5872 5872 5873 5873 5874 5875 5875 5876 5878 5879 5880 5882 5884 5885 5887 5888 5890 5890 5891 5893 5894 5894 5895 5896 5897 5897 5898 5898
5877 5876 5876 5875 5874 5874 5873 5873 5873 5873 5873 5873 5873 5873 5873 5873 5873 5873 5874 5875 5876 5877 5878 5879 5880 5881 5883 5884 5886 5887 5889 5890 5891 5892 5893 5894 5895 5896 5896 5897 5898 5898 5898
5877 5876 5876 5875 5875 5874 5874 5873 5873 5873 5873 5873 5873 5874 5873 5873 5873 5874 5875 5877 5878 5878 5879 5880 5881 5883 5883 5884 5886 5887 5889 5891 5892 5893 5894 5895 5896 5896 5897 5897 5898 5898 5899
5878 5877 5876 5875 5875 5874 5874 5874 5874 5874 5874 5874 5874 5874 5874 5875 5875 5875 5876 5878 5879 5879 5880 5882 5882 5883 5884 5885 5886 5888 5889 5891 5892 5893 5895 5895 5896 5897 5897 5898 5898 5899 5899
5878 5877 5877 5876 5875 5875 5875 5875 5875 5875 5875 5876 5876 5875 5875 5876 5877 5878 5879 5880 5880 5881 5882 5883 5884 5884 5885 5886 5887 5889 5890 5892 5893 5894 5895 5896 5897 5897 5898 5898 5899 5899 5899
5879 5878 5877 5876 5876 5876 5875 5875 5875 5875 5876 5877 5877 5877 5877 5877 5878 5879 5880 5881 5882 5883 5883 5884 5885 5886 5887 5888 5889 5890 5892 5893 5893 5895 5896 5896 5897 5898 5898 5899 5899 5899 5899
5880 5879 5878 5877 5877 5876 5876 5876 5876 5876 5877 5877 5878 5878 5879 5879 5880 5881 5882 5882 5883 5884 5885 5885 5886 5888 5889 5890 5891 5892 5893 5894 5894 5895 5896 5897 5897 5898 5898 5899 5899 5899 5899
5881 5880 5879 5878 5878 5877 5877 5877 5877 5877 5877 5878 5879 5879 5880 5881 5881 5883 5883 5884 5884 5885 5886 5887 5888 5888 5889 5890 5892 5893 5893 5894 5895 5896 5897 5897 5897 5898 5898 5898 5899 5899 5899
5882 5881 5880 5880 5879 5879 5878 5878 5877 5878 5878 5879 5879 5880 5881 5882 5883 5884 5885 5885 5885 5886 5887 5888 5889 5890 5890 5891 5892 5893 5894 5895 5895 5896 5896 5897 5897 5898 5898 5898 5898 5898 5898
5884 5883 5882 5881 5881 5880 5879 5879 5879 5879 5880 5880 5881 5882 5883 5884 5884 5885 5886 5886 5887 5887 5888 5889 5890 5891 5891 5892 5893 5893 5894 5895 5895 5896 5896 5897 5897 5897 5898 5898 5898 5898 5898
5885 5884 5883 5882 5882 5881 5881 5881 5881 5881 5881 5882 5882 5883 5884 5885 5886 5886 5886 5887 5888 5889 5889 5890 5890 5891 5892 5892 5893 5893 5894 5894 5895 5895 5896 5896 5896 5897 5897 5897 5897 5897 5897
5887 5886 5885 5884 5883 5883 5882 5882 5882 5883 5883 5883 5884 5884 5885 5885 5886 5887 5888 5888 5889 5889 5889 5890 5891 5891 5892 5892 5893 5893 5894 5894 5894 5895 5895 5895 5896 5896 5896 5896 5896 5896 5896
5888 5887 5886 5885 5884 5884 5884 5884 5884 5884 5884 5884 5885 5885 5885 5886 5887 5887 5888 5888 5889 5890 5890 5890 5890 5891 5891 5892 5893 5893 5893 5893 5894 5894 5894 5894 5895 5895 5895 5895 5895 5894 5894
5891 5889 5888 5887 5886 5885 5885 5885 5885 5885 5886 5886 5886 5886 5886 5886 5887 5888 5888 5889 5889 5890 5890 5891 5891 5891 5891 5892 5892 5892 5892 5892 5893 5893 5893 5893 5894 5894 5894 5894 5893 5893 5893
5892 5891 5890 5889 5888 5887 5887 5887 5887 5886 5887 5887 5887 5887 5888 5887 5888 5888 5889 5889 5890 5890 5890 5890 5891 5891 5891 5891 5891 5891 5891 5892 5892 5892 5892 5892 5892 5892 5892 5892 5892 5891 5891
5895 5893 5892 5891 5890 5889 5889 5888 5888 5888 5888 5888 5888 5888 5889 5889 5889 5889 5889 5890 5890 5890 5890 5890 5891 5891 5891 5891 5891 5890 5890 5890 5891 5891 5890 5890 5890 5890 5890 5890 5890 5889 5889
5897 5896 5894 5893 5892 5891 5891 5890 5890 5889 5889 5889 5889 5890 5890 5890 5890 5890 5890 5890 5890 5890 5890 5891 5891 5891 5891 5890 5890 5889 5889 5890 5889 5889 5889 5889 5888 5888 5888 5888 5887 5887 5887
5899 5898 5896 5895 5894 5893 5892 5892 5891 5891 5891 5891 5891 5891 5891 5890 5890 5890 5890 5890 5890 5890 5890 5890 5890 5890 5890 5890 5889 5889 5889 5888 5888 5888 5888 5887 5887 5886 5886 5885 5885 5885 5884
5901 5899 5898 5897 5895 5894 5894 5893 5893 5892 5892 5892 5892 5892 5891 5891 5891 5891 5891 5890 5890 5890 5890 5890 5890 5889 5889 5889 5888 5888 5888 5887 5887 5887 5887 5886 5885 5885 5884 5884 5883 5882 5881
5902 5901 5899 5898 5897 5896 5895 5895 5894 5894 5893 5893 5892 5892 5892 5892 5892 5891 5891 5891 5891 5890 5890 5890 5889 5889 5888 5888 5887 5887 5886 5886 5886 5885 5885 5884 5884 5883 5882 5881 5881 5880 5879
5903 5902 5900 5899 5899 5898 5897 5896 5895 5895 5894 5893 5893 5893 5892 5892 5892 5892 5892 5891 5891 5891 5890 5890 5889 5888 5887 5887 5886 5886 5885 5884 5884 5883 5883 5882 5882 5881 5880 5879 5878 5877 5876